Location: Brienzwiler
(46.7508°N, 8.1014°E)
Time: 07:43:46
(UTC+00:00)

Cosmos 1328 Rocket - Pass Details

Date: 05 July 2020
Orbit: 601 x 627 km, 82.5° (Epoch: 06 August)

Event Time Altitude Azimuth Distance (km) Brightness Sun altitude
Rises 22:42:51 0° 354° (N) 2,866 8.6 -19.7°
Reaches altitude 10° 22:45:07 10° 359° (N) 1,957 7.3 -19.8°
Maximum altitude 22:49:22 57° 78° (ENE) 715 3.8 -19.9°
Enters shadow 22:50:26 43° 129° (SE) 846 3.9 -19.9°
